Weather History for Fullerton, CA

Change the Weather History Date:

Wednesday, November 6, 2013

  Actual Average Record
Temperature  
Mean Temperature 68 °F 64 °F  
Max Temperature 86 °F 75 °F 96 °F (2006)
Min Temperature 50 °F 52 °F 47 °F (2011)
Degree Days  
Heating Degree Days 0 3  
Month to date heating degree days 4 14  
Since 1 July heating degree days 25 38  
Cooling Degree Days 3 1  
Month to date cooling degree days 10 8  
Year to date cooling degree days 1869 1239  
Growing Degree Days 17 (Base 50)    
Moisture  
Dew Point 27 °F    
Average Humidity 30    
Maximum Humidity 50    
Minimum Humidity 9    
Precipitation  
Precipitation 0.00 in 0.04 in 0.18 in (2011)
Month to date precipitation 0.00 0.28  
Year to date precipitation 2.66 11.01  
Since 1 July precipitation 0.13 1.36  
Snow  
Snow 0.00 in - - ()
Month to date snowfall 0.0  
Year to date snowfall 0.0  
Since 1 July snowfall 0.0  
Snow Depth 0.00 in    
Sea Level Pressure  
Sea Level Pressure 30.13 in    
Wind  
Wind Speed 3 mph (WNW)    
Max Wind Speed 10 mph    
Max Gust Speed 13 mph    
Visibility 10 miles    
Events      
T = Trace of Precipitation, MM = Missing Value Source: NWS Daily Summary

Daily Weather History Graph

Daily Weather History Graph

Search for Another Location

Airport:

Trip Planner

Search our weather history database for the weather conditions in past years. The results will help you decide how hot, cold, wet, or windy it might be!

Date:

Astronomy

Nov. 06, 2013 Rise Set
Actual Time 6:16 AM PST 4:54 PM PST
Civil Twilight 5:49 AM PST 5:20 PM PST
Nautical Twilight 5:20 AM PST 5:50 PM PST
Astronomical Twilight 4:50 AM PST 6:19 PM PST
Moon 9:31 AM PST (11/6) 8:07 PM PST (11/6)
Length of Visible Light 11h 30m
Length of Day
10h 38m
Waxing Crescent, 14% of the Moon is Illuminated
Nov 6
Waxing Crescent
Nov 9
First Quarter
Nov 17
Full
Nov 25
Last Quarter
Dec 2
New

Hourly Weather History & Observations

Time (PST) Temp. Dew Point Humidity Pressure Visibility Wind Dir Wind Speed Gust Speed Precip Events Conditions
12:53 AM 53.1 °F 30.0 °F 41% 30.13 in 10.0 mi Calm Calm - N/A   Clear
1:53 AM 51.1 °F 30.0 °F 44% 30.13 in 10.0 mi Calm Calm - N/A   Clear
2:53 AM 50.0 °F 32.0 °F 50% 30.13 in 10.0 mi Calm Calm - N/A   Clear
3:53 AM 57.0 °F 18.0 °F 22% 30.13 in 10.0 mi ENE 5.8 mph - N/A   Clear
4:53 AM 63.0 °F 12.0 °F 14% 30.14 in 10.0 mi ENE 9.2 mph - N/A   Clear
5:53 AM 60.1 °F 12.9 °F 16% 30.14 in 10.0 mi Calm Calm - N/A   Clear
6:53 AM 57.9 °F 21.0 °F 24% 30.15 in 10.0 mi Calm Calm - N/A   Clear
7:53 AM 64.0 °F 23.0 °F 21% 30.17 in 10.0 mi NNW 3.5 mph - N/A   Clear
8:53 AM 71.1 °F 28.9 °F 21% 30.18 in 10.0 mi NW 4.6 mph - N/A   Clear
9:53 AM 75.0 °F 25.0 °F 16% 30.18 in 10.0 mi SSW 4.6 mph - N/A   Clear
10:53 AM 77.0 °F 25.0 °F 15% 30.17 in 10.0 mi South 4.6 mph - N/A   Clear
11:53 AM 81.0 °F 19.0 °F 10% 30.14 in 10.0 mi WNW 3.5 mph - N/A   Clear
12:53 PM 82.9 °F 17.1 °F 9% 30.12 in 10.0 mi Variable 4.6 mph - N/A   Clear
1:53 PM 84.0 °F 27.0 °F 13% 30.10 in 10.0 mi Variable 4.6 mph - N/A   Clear
2:53 PM 82.9 °F 28.0 °F 14% 30.09 in 10.0 mi SSW 4.6 mph - N/A   Clear
3:53 PM 81.0 °F 27.0 °F 14% 30.09 in 10.0 mi Calm Calm - N/A   Clear
4:53 PM 77.0 °F 30.0 °F 18% 30.10 in 10.0 mi West 4.6 mph - N/A   Clear
5:53 PM 72.0 °F 34.0 °F 25% 30.12 in 10.0 mi Calm Calm - N/A   Clear
6:53 PM 68.0 °F 30.0 °F 24% 30.13 in 10.0 mi Calm Calm - N/A   Clear
7:53 PM 63.0 °F 37.0 °F 38% 30.12 in 10.0 mi Calm Calm - N/A   Clear
8:53 PM 61.0 °F 39.0 °F 44% 30.13 in 10.0 mi Calm Calm - N/A   Clear
9:53 PM 57.9 °F 37.9 °F 47% 30.11 in 10.0 mi Calm Calm - N/A   Clear
10:53 PM 57.9 °F 34.0 °F 41% 30.09 in 10.0 mi NW 3.5 mph - N/A   Clear
11:53 PM 57.0 °F 28.9 °F 34% 30.07 in 10.0 mi NW 3.5 mph - N/A   Clear